User: anonymous   Login
Location: Unspecified
(0.0000°N, 0.0000°E)
Time: 07:49:30
(UTC+00:00)
Language:

STARLINK-2531 - Orbit

View from above orbital plane
View from above orbital plane
View from above satellite
View from above satellite

Ground track
Ground track

The orbit is defined by the following mean orbital elements,

1 48483U          26145.42006086 +.00000000 +00000-0 +34024-4 0 00001
2 48483  53.1597 197.2118 0001207  81.8881 278.2257 15.31702873    02
Epoch (UTC): 25 May 2026 10:04:53
Eccentricity: 0.0001207
inclination: 53.1597°
perigee height: 470 km
apogee height: 472 km
right ascension of ascending node: 197.2118°
argument of perigee: 81.8881°
revolutions per day: 15.31702873
mean anomaly at epoch: 278.2257°

The dashed part of the orbit path shows where the satellite is in the earth's shadow,  

DLR